Location: Jetmore
(38.0845°N, 99.8935°W)
Time: 13:04:01
(UTC+00:00)

Nauka - Pass Details

Date: 17 September 2021
Orbit: 417 x 423 km, 51.6° (Epoch: 23 October)

Event Time Altitude Azimuth Distance (km) Brightness Sun altitude
Rises 02:26:07 0° 244° (WSW) 2,350 ? -20.2°
Reaches altitude 10° 02:28:16 10° 251° (WSW) 1,490 ? -20.6°
Maximum altitude 02:31:29 44° 325° (NW) 593 ? -21.2°
Enters shadow 02:32:18 35° 6° (N) 691 ? -21.3°
